Location: *
(49.3500°N, 12.6000°E)
Time: 23:19:54
(UTC+00:00)

H-2A R/B - Pass Details

Date: 18 October 2019
Orbit: 734 x 837 km, 98.3° (Epoch: 14 November)

Event Time Altitude Azimuth Distance (km) Brightness Sun altitude
Exits shadow 16:55:06 - 77° (ENE) 2,527 4.0 -7.4°
Reaches altitude 10° 16:55:47 10° 70° (ENE) 2,424 4.0 -7.5°
Maximum altitude 16:57:40 12° 49° (NE) 2,302 4.0 -7.8°
Drops below altitude 10° 16:59:33 10° 29° (NNE) 2,444 4.3 -8.1°
Sets 17:03:34 0° 360° (N) 3,395 5.3 -8.8°
